DL3MEB-6 Weather Reports


time (UTC)temp
C
wind
direction
speed
KPH
gust
KPH
rain 1hr
cm
rain 24hr
cm
rain mn
cm
humidity
%
barometer
mb
20260903024106 16 274 0.0 0.0 0.00 0.00 0.00 79 1020.6
20260903022557 16 275 0.0 0.0 0.00 0.00 0.00 79 1020.5
20260903021053 16 274 1.6 1.6 0.00 0.00 0.00 78 1020.5
20260903015551 16 275 0.0 0.0 0.00 0.00 0.00 77 1020.3
20260903014045 16 274 0.0 0.0 0.00 0.00 0.00 76 1020.3
20260903012537 17 274 0.0 1.6 0.00 0.00 0.00 74 1020.3
20260903011030 17 274 1.6 1.6 0.00 0.00 0.00 73 1020.2
20260903005529 17 274 0.0 0.0 0.00 0.00 0.00 71 1020.0
20260903004022 17 275 0.0 0.0 0.00 0.00 0.00 69 1020.0
20260903002516 18 274 0.0 0.0 0.00 0.00 0.00 68 1020.0
20260903001013 18 274 1.6 3.2 0.00 0.00 0.00 67 1020.0
20260902235508 18 275 0.0 1.6 0.00 0.00 0.00 66 1020.1
20260902234002 18 274 3.2 3.2 0.00 0.00 0.00 66 1020.2
20260902232455 18 274 0.0 3.2 0.00 0.00 0.00 67 1020.1
20260902230946 18 274 0.0 0.0 0.00 0.00 0.00 68 1020.1
20260902225435 18 275 0.0 0.0 0.00 0.00 0.00 66 1020.1
20260902223925 18 275 0.0 0.0 0.00 0.00 0.00 65 1020.1
20260902222421 18 274 0.0 0.0 0.00 0.00 0.00 64 1020.1
20260902220917 18 275 1.6 1.6 0.00 0.00 0.00 64 1020.1
20260902215409 18 275 0.0 3.2 0.00 0.00 0.00 65 1020.1
20260902213906 18 274 0.0 1.6 0.00 0.00 0.00 66 1020.1
20260902212358 18 275 0.0 0.0 0.00 0.00 0.00 67 1020.0
20260902205344 19 309 0.0 0.0 0.00 0.00 0.00 68 1019.9
20260902202336 19 309 0.0 0.0 0.00 0.00 0.00 65 1019.7
20260902200823 20 309 0.0 0.0 0.00 0.00 0.00 65 1019.9
20260902195315 20 309 0.0 0.0 0.00 0.00 0.00 64 1019.9
20260902193902 20 309 0.0 0.0 0.00 0.00 0.00 65 1019.9
20260902193816 20 309 0.0 0.0 0.00 0.00 0.00 65 1019.9
20260902192307 20 309 0.0 0.0 0.00 0.00 0.00 63 1019.7
20260902190803 20 309 0.0 0.0 0.00 0.00 0.00 62 1019.8
20260902185253 21 309 0.0 0.0 0.00 0.00 0.00 60 1019.6
20260902183742 21 309 0.0 0.0 0.00 0.00 0.00 58 1019.5
20260902182227 22 309 0.0 0.0 0.00 0.00 0.00 56 1019.1
20260902180721 23 309 0.0 0.0 0.00 0.00 0.00 54 1019.0
20260902175220 23 309 0.0 0.0 0.00 0.00 0.00 52 1018.8
20260902173709 24 309 0.0 1.6 0.00 0.00 0.00 50 1018.7
20260902172204 24 309 0.0 3.2 0.00 0.00 0.00 47 1018.6
20260902170651 24 308 1.6 6.4 0.00 0.00 0.00 45 1018.7
20260902165141 24 298 1.6 4.8 0.00 0.00 0.00 45 1018.9
20260902162136 25 278 1.6 6.4 0.00 0.00 0.00 42 1018.6
20260902160630 25 329 0.0 6.4 0.00 0.00 0.00 41 1018.4
20260902155117 25 302 1.6 8.0 0.00 0.00 0.00 41 1018.5
20260902152102 26 230 14.5 16.1 0.00 0.00 0.00 38 1018.8
20260902150604 27 241 8.0 8.0 0.00 0.00 0.00 36 1018.6
20260902145053 27 275 9.7 16.1 0.00 0.00 0.00 35 1018.6
20260902142044 27 222 9.7 9.7 0.00 0.00 0.00 36 1018.8
20260902140533 27 271 16.1 16.1 0.00 0.00 0.00 38 1018.7
20260902135023 27 232 4.8 14.5 0.00 0.00 0.00 34 1018.6
20260902133515 27 239 17.7 17.7 0.00 0.00 0.00 35 1018.8
20260902132017 27 237 6.4 14.5 0.00 0.00 0.00 38 1019.0
20260902130506 26 148 3.2 9.7 0.00 0.00 0.00 40 1019.1
20260902124953 26 248 1.6 12.9 0.00 0.00 0.00 41 1019.4
20260902121940 25 284 6.4 8.0 0.00 0.00 0.00 41 1019.6
20260902120436 25 250 6.4 8.0 0.00 0.00 0.00 41 1019.6
20260902114927 24 267 9.7 9.7 0.00 0.00 0.00 44 1019.7
20260902113418 23 223 0.0 1.6 0.00 0.00 0.00 46 1020.1
20260902110409 23 93 0.0 1.6 0.00 0.00 0.00 52 1020.1
20260902104906 23 110 0.0 3.2 0.00 0.00 0.00 50 1020.4
20260902103402 22 85 3.2 3.2 0.00 0.00 0.00 53 1020.5
20260902101847 22 82 0.0 3.2 0.00 0.00 0.00 51 1020.5
20260902094833 22 68 1.6 3.2 0.00 0.00 0.00 57 1021.0
20260902093332 21 86 3.2 4.8 0.00 0.00 0.00 58 1020.9
20260902091826 21 80 1.6 1.6 0.00 0.00 0.00 58 1020.8
20260902090316 21 82 0.0 1.6 0.00 0.00 0.00 59 1020.8
20260902084807 20 82 4.8 4.8 0.00 0.00 0.00 59 1020.9
20260902083306 18 75 0.0 1.6 0.00 0.00 0.00 67 1020.9
20260902081759 18 75 1.6 1.6 0.00 0.00 0.00 71 1020.9
20260902080252 17 79 0.0 1.6 0.00 0.00 0.00 80 1021.1
20260902074745 16 311 0.0 0.0 0.00 0.00 0.00 85 1021.0
20260902073242 15 311 0.0 0.0 0.00 0.00 0.00 91 1021.2
20260902071736 15 311 0.0 0.0 0.00 0.00 0.00 95 1021.0
20260902070233 14 311 1.6 1.6 0.00 0.00 0.00 96 1021.0
20260902064727 13 311 0.0 0.0 0.00 0.00 0.00 96 1021.2
20260902063213 13 311 0.0 0.0 0.00 0.00 0.00 96 1021.1
20260902061709 13 309 0.0 0.0 0.00 0.00 0.00 96 1020.9
20260902054657 12 311 0.0 0.0 0.00 0.00 0.00 95 1020.6
20260902053144 12 309 0.0 0.0 0.00 0.00 0.00 95 1020.7
20260902051636 12 311 0.0 0.0 0.00 0.00 0.00 94 1020.5
20260902050136 11 311 0.0 0.0 0.00 0.00 0.00 93 1020.4
20260902044633 11 311 0.0 0.0 0.00 0.00 0.00 93 1020.3
20260902043119 12 309 0.0 0.0 0.00 0.00 0.00 92 1020.3
20260902041619 12 311 0.0 0.0 0.00 0.00 0.00 92 1020.1
20260902040109 12 311 0.0 0.0 0.00 0.00 0.00 92 1020.2
20260902034600 12 311 0.0 0.0 0.00 0.00 0.00 92 1020.1
20260902031549 12 311 0.0 0.0 0.00 0.00 0.00 91 1020.2
20260902030043 12 309 0.0 0.0 0.00 0.00 0.00 91 1020.2
20260902024536 13 311 0.0 0.0 0.00 0.00 0.00 91 1020.4